When you browse on this site, cookies collect data to enhance your experience and personalize the content and advertising you see.
Visit our Privacy Policy to learn more. By continuing to use the site, you agree to this use of cookies and data.
  • In Hungary
  • List of Countries
  • For 7 days
  • Water Temperature
  • Weather Map
  • News
  • Weather Widgets
  • user-avatar
    Login

    Hourly Weather Peque

    Today, 20 August, Tuesday

    Time Temperature Precipitation Wind Pressure Humidity
    00:00 +18°C° 0.6 mm 0 mps 653 mmHg 96%
    01:00 +18°C° 0 mm 0 mps 653 mmHg 95%
    02:00 +18°C° 0.1 mm 0 mps 653 mmHg 95%
    03:00 +18°C° 0.1 mm 0 mps 653 mmHg 95%
    04:00 +17°C° 0.1 mm 0 mps 653 mmHg 95%
    05:00 +18°C° 0 mm 0 mps 653 mmHg 94%
    06:00 +18°C° 0 mm 0 mps 653 mmHg 93%
    07:00 +19°C° 0 mm 0 mps 654 mmHg 92%
    08:00 +21°C° 0.1 mm 0 mps 655 mmHg 84%
    09:00 +23°C° 0.1 mm 0 mps 655 mmHg 75%
    10:00 +27°C° 0.1 mm 1 mps 656 mmHg 66%
    11:00 +27°C° 0.8 mm 1 mps 656 mmHg 69%
    12:00 +27°C° 0.8 mm 1 mps 655 mmHg 72%
    13:00 +27°C° 0.8 mm 1 mps 654 mmHg 75%
    14:00 +27°C° 1.5 mm 1 mps 654 mmHg 80%
    15:00 +26°C° 1.5 mm 1 mps 653 mmHg 86%
    16:00 +25°C° 1.5 mm 1 mps 652 mmHg 91%
    17:00 +22°C° 1.2 mm 0 mps 652 mmHg 93%
    18:00 +20°C° 1.2 mm 0 mps 653 mmHg 95%
    19:00 +19°C° 1.2 mm 0 mps 653 mmHg 97%
    20:00 +19°C° 0.9 mm 0 mps 653 mmHg 97%
    21:00 +19°C° 0.9 mm 0 mps 654 mmHg 97%
    22:00 +19°C° 0.9 mm 0 mps 654 mmHg 97%
    23:00 +19°C° 0.6 mm 0 mps 654 mmHg 97%

    Tomorrow, 21 August, Wednesday

    Time Temperature Precipitation Wind Pressure Humidity
    00:00 +18°C° 0.6 mm 0 mps 654 mmHg 97%
    01:00 +18°C° 0.6 mm 0 mps 654 mmHg 97%
    02:00 +18°C° 0.1 mm 0 mps 653 mmHg 96%
    03:00 +18°C° 0.1 mm 0 mps 653 mmHg 95%
    04:00 +18°C° 0.1 mm 0 mps 653 mmHg 94%
    05:00 +18°C° 0 mm 0 mps 653 mmHg 94%
    06:00 +18°C° 0 mm 0 mps 654 mmHg 93%
    07:00 +18°C° 0 mm 0 mps 654 mmHg 93%
    08:00 +22°C° 0.3 mm 1 mps 655 mmHg 87%
    09:00 +24°C° 0.3 mm 1 mps 656 mmHg 80%
    10:00 +26°C° 0.3 mm 1 mps 656 mmHg 74%
    11:00 +27°C° 1.1 mm 1 mps 656 mmHg 74%
    12:00 +27°C° 1.1 mm 1 mps 655 mmHg 74%
    13:00 +27°C° 1.1 mm 1 mps 655 mmHg 74%
    14:00 +27°C° 1.6 mm 1 mps 654 mmHg 79%
    15:00 +26°C° 1.6 mm 1 mps 653 mmHg 85%
    16:00 +25°C° 1.6 mm 1 mps 652 mmHg 91%
    17:00 +24°C° 0.8 mm 1 mps 653 mmHg 93%
    18:00 +21°C° 0.8 mm 0 mps 653 mmHg 95%
    19:00 +19°C° 0.8 mm 0 mps 653 mmHg 97%
    20:00 +19°C° 0.4 mm 0 mps 653 mmHg 97%
    21:00 +19°C° 0.4 mm 0 mps 654 mmHg 96%
    22:00 +18°C° 0.4 mm 0 mps 654 mmHg 96%
    23:00 +18°C° 0.1 mm 0 mps 654 mmHg 96%

    Day after tomorrow, 22 August, Thursday

    Time Temperature Precipitation Wind Pressure Humidity
    00:00 +18°C° 0.1 mm 0 mps 654 mmHg 95%
    01:00 +17°C° 0.1 mm 0 mps 653 mmHg 95%
    02:00 +17°C° 0 mm 0 mps 653 mmHg 94%
    03:00 +17°C° 0 mm 0 mps 653 mmHg 94%
    04:00 +17°C° 0 mm 0 mps 653 mmHg 94%
    05:00 +17°C° 0 mm 0 mps 654 mmHg 93%
    06:00 +18°C° 0 mm 0 mps 654 mmHg 93%
    07:00 +18°C° 0 mm 0 mps 654 mmHg 92%
    08:00 +21°C° 0 mm 0 mps 655 mmHg 82%
    09:00 +25°C° 0 mm 1 mps 656 mmHg 71%
    10:00 +28°C° 0 mm 1 mps 657 mmHg 61%
    11:00 +28°C° 0.4 mm 1 mps 656 mmHg 61%
    12:00 +29°C° 0.4 mm 1 mps 656 mmHg 61%
    13:00 +29°C° 0.4 mm 1 mps 655 mmHg 61%
    14:00 +28°C° 1.1 mm 1 mps 654 mmHg 70%
    15:00 +27°C° 1.1 mm 1 mps 653 mmHg 79%
    16:00 +26°C° 1.1 mm 1 mps 653 mmHg 87%
    17:00 +25°C° 0.9 mm 1 mps 653 mmHg 91%
    18:00 +23°C° 0.9 mm 1 mps 653 mmHg 94%
    19:00 +20°C° 0.9 mm 0 mps 653 mmHg 98%
    20:00 +19°C° 0.3 mm 0 mps 653 mmHg 97%
    21:00 +19°C° 0.3 mm 0 mps 654 mmHg 97%
    22:00 +19°C° 0.3 mm 0 mps 654 mmHg 97%
    23:00 +19°C° 0.1 mm 0 mps 654 mmHg 96%

    23 August, Friday

    Time Temperature Precipitation Wind Pressure Humidity
    00:00 +18°C° 0.1 mm 0 mps 654 mmHg 96%
    01:00 +18°C° 0.1 mm 0 mps 653 mmHg 95%
    02:00 +18°C° 0 mm 0 mps 653 mmHg 95%
    03:00 +18°C° 0 mm 0 mps 653 mmHg 94%
    04:00 +17°C° 0 mm 0 mps 653 mmHg 94%
    05:00 +18°C° 0 mm 0 mps 653 mmHg 93%
    06:00 +18°C° 0 mm 0 mps 654 mmHg 92%
    07:00 +19°C° 0 mm 0 mps 654 mmHg 92%
    08:00 +21°C° 0 mm 0 mps 655 mmHg 80%
    09:00 +24°C° 0 mm 0 mps 656 mmHg 69%
    10:00 +29°C° 0 mm 1 mps 656 mmHg 57%
    11:00 +29°C° 0.7 mm 1 mps 656 mmHg 60%
    12:00 +29°C° 0.7 mm 1 mps 655 mmHg 62%
    13:00 +29°C° 0.7 mm 1 mps 654 mmHg 65%
    14:00 +28°C° 2.1 mm 1 mps 654 mmHg 74%
    15:00 +27°C° 2.1 mm 1 mps 653 mmHg 82%
    16:00 +25°C° 2.1 mm 1 mps 652 mmHg 91%
    17:00 +24°C° 1.9 mm 1 mps 652 mmHg 93%
    18:00 +23°C° 1.9 mm 1 mps 652 mmHg 95%
    19:00 +22°C° 1.9 mm 1 mps 653 mmHg 97%
    20:00 +19°C° 0.8 mm 0 mps 653 mmHg 97%
    21:00 +19°C° 0.8 mm 0 mps 653 mmHg 97%
    22:00 +19°C° 0.8 mm 0 mps 654 mmHg 97%
    23:00 +18°C° 0.2 mm 0 mps 653 mmHg 96%

    24 August, Saturday

    Time Temperature Precipitation Wind Pressure Humidity
    00:00 +18°C° 0.2 mm 0 mps 653 mmHg 96%
    01:00 +18°C° 0.2 mm 0 mps 653 mmHg 96%
    02:00 +18°C° 0.1 mm 0 mps 653 mmHg 95%
    03:00 +18°C° 0.1 mm 0 mps 653 mmHg 94%
    04:00 +17°C° 0.1 mm 0 mps 653 mmHg 94%
    05:00 +18°C° 0 mm 0 mps 653 mmHg 93%
    06:00 +18°C° 0 mm 0 mps 654 mmHg 92%
    07:00 +19°C° 0 mm 0 mps 654 mmHg 92%
    08:00 +21°C° 0 mm 0 mps 655 mmHg 81%
    09:00 +24°C° 0 mm 0 mps 656 mmHg 71%
    10:00 +26°C° 0 mm 0 mps 656 mmHg 61%
    11:00 +28°C° 0.6 mm 1 mps 656 mmHg 62%
    12:00 +29°C° 0.6 mm 1 mps 655 mmHg 64%
    13:00 +29°C° 0.6 mm 1 mps 654 mmHg 65%
    14:00 +27°C° 1.7 mm 1 mps 654 mmHg 75%
    15:00 +26°C° 1.7 mm 1 mps 653 mmHg 84%
    16:00 +24°C° 1.7 mm 1 mps 652 mmHg 94%
    17:00 +23°C° 2 mm 1 mps 652 mmHg 95%
    18:00 +22°C° 2 mm 1 mps 652 mmHg 96%
    19:00 +20°C° 2 mm 0 mps 652 mmHg 97%
    20:00 +19°C° 1.1 mm 0 mps 653 mmHg 97%
    21:00 +19°C° 1.1 mm 0 mps 653 mmHg 97%
    22:00 +19°C° 1.1 mm 0 mps 654 mmHg 97%
    23:00 +19°C° 0.8 mm 0 mps 654 mmHg 97%

    25 August, Sunday

    Time Temperature Precipitation Wind Pressure Humidity
    00:00 +18°C° 0.8 mm 0 mps 653 mmHg 96%
    01:00 +18°C° 0.8 mm 0 mps 653 mmHg 96%
    02:00 +18°C° 0.4 mm 0 mps 653 mmHg 96%
    03:00 +18°C° 0.4 mm 0 mps 653 mmHg 96%
    04:00 +18°C° 0.4 mm 0 mps 652 mmHg 96%
    05:00 +18°C° 0.3 mm 0 mps 653 mmHg 96%
    06:00 +18°C° 0.3 mm 0 mps 653 mmHg 96%
    07:00 +19°C° 0.3 mm 0 mps 654 mmHg 96%
    08:00 +22°C° 0.3 mm 1 mps 654 mmHg 92%
    09:00 +23°C° 0.3 mm 1 mps 655 mmHg 89%
    10:00 +24°C° 0.3 mm 1 mps 655 mmHg 85%
    11:00 +25°C° 0.5 mm 1 mps 655 mmHg 79%
    12:00 +26°C° 0.5 mm 1 mps 654 mmHg 73%
    13:00 +25°C° 0.5 mm 0 mps 654 mmHg 67%
    14:00 +27°C° 0.6 mm 1 mps 653 mmHg 73%
    15:00 +26°C° 0.6 mm 1 mps 652 mmHg 79%
    16:00 +25°C° 0.6 mm 1 mps 652 mmHg 85%
    17:00 +24°C° 0.8 mm 1 mps 652 mmHg 89%
    18:00 +22°C° 0.8 mm 1 mps 652 mmHg 93%
    19:00 +21°C° 0.8 mm 1 mps 652 mmHg 97%
    20:00 +19°C° 0.5 mm 0 mps 652 mmHg 97%
    21:00 +19°C° 0.5 mm 0 mps 653 mmHg 97%
    22:00 +18°C° 0.5 mm 0 mps 653 mmHg 97%
    23:00 +18°C° 0.1 mm 0 mps 653 mmHg 96%
    Show more